QPF
0.00 0.00 0.00 0.00 0.00 0.00 0.00 0.00 0.00 0.00 0.00 0.00 0.00 0.00 0.00 0.00 0.03 0.05 0.07 0.07 0.15 0.10 0.05 0.02 0.00 0.00 0.00 0.00 0.00 0.00 0.00 0.00 0.00 0.00 0.00 0.00 0.00 0.00 0.00 0.00 0.00 0.00 0.00 0.00 0.00 0.00 0.00
0.00 0.00 0.00 0.00 0.00 0.00 0.00 0.00 0.00 0.00 0.00 0.00 0.00 0.00 0.00 0.00 0.00 0.01 0.03 0.02 0.10 0.08 0.02 0.00 0.00 0.00 0.00 0.00 0.00 0.00 0.00 0.00 0.00 0.00 0.00 0.00 0.00 0.00 0.00 0.00 0.00 0.00 0.00 0.00 0.00 0.00 0.00
0.00 0.00 0.00 0.00 0.00 0.00 0.00 0.00 0.00 0.00 0.00 0.00 0.00 0.00 0.00 0.00 0.00 0.01 0.01 0.02 0.02 0.01 0.01 0.00 0.00 0.00 0.00 0.00 0.00 0.00 0.00 0.00 0.00 0.00 0.00 0.00 0.00 0.00 0.00 0.00 0.00 0.00 0.00 0.00 0.00 0.00 0.00
0.00 0.00 0.00 0.00 0.00 0.00 0.00 0.00 0.00 0.00 0.00 0.00 0.00 0.00 0.00 0.00 0.00 0.00 0.00 0.00 0.00 0.00 0.00 0.00 0.00 0.00 0.00 0.00 0.00 0.00 0.00 0.00 0.00 0.00 0.00 0.00 0.00 0.00 0.00 0.00 0.00 0.00 0.00 0.00 0.00 0.00 0.00
0.00 0.00 0.00 0.00 0.00 0.00 0.00 0.00 0.00 0.00 0.00 0.00 0.00 0.00 0.00 0.00 0.00 0.00 0.00 0.00 0.00 0.00 0.00 0.00 0.00 0.00 0.00 0.00 0.00 0.00 0.00 0.00 0.00 0.00 0.00 0.00 0.00 0.00 0.00 0.00 0.00 0.00 0.00 0.00 0.00 0.00 0.00
0.00 0.00 0.00 0.00 0.00 0.00 0.00 0.00 0.00 0.00 0.00 0.00 0.00 0.00 0.00 0.00 0.00 0.00 0.00 0.00 0.00 0.00 0.00 0.00 0.00 0.00 0.00 0.00 0.00 0.00 0.00 0.00 0.00 0.00 0.00 0.00 0.00 0.00 0.00 0.00 0.00 0.00 0.00 0.00 0.00 0.00 0.00
0.00 0.00 0.00 0.00 0.00 0.00 0.00 0.00 0.00 0.00 0.00 0.00 0.00 0.00 0.00 0.00 0.00 0.00 0.00 0.00 0.00 0.00 0.00 0.00 0.00 0.00 0.00 0.00 0.00 0.00 0.00 0.00 0.00 0.00 0.00 0.00 0.00 0.00 0.00 0.00 0.00 0.00 0.00 0.00 0.00 0.00 0.00
0.00 0.00 0.00 0.00 0.00 0.00 0.00 0.00 0.00 0.00 0.00 0.00 0.00 0.00 0.00 0.00 0.00 0.00 0.00 0.00 0.00 0.00 0.00 0.00 0.00 0.00 0.00 0.00 0.00 0.00 0.00 0.00 0.00 0.00 0.00 0.00 0.00 0.00 0.00 0.00 0.00 0.00 0.00 0.00 0.00 0.00 0.00
0.00 0.00 0.00 0.00 0.00 0.00 0.00 0.00 0.00 0.00 0.00 0.00 0.00 0.00 0.00 0.00 0.00 0.00 0.00 0.00 0.00 0.00 0.00 0.00 0.00 0.00 0.00 0.00 0.00 0.00 0.00 0.00 0.00 0.00 0.00 0.00 0.00 0.00 0.00 0.00 0.00 0.00 0.00 0.00 0.00 0.00 0.00
0.00 0.00 0.00 0.00 0.00 0.00 0.00 0.00 0.00 0.00 0.00 0.00 0.00 0.00 0.00 0.00 0.00 0.00 0.00 0.00 0.00 0.00 0.00 0.00 0.00 0.00 0.00 0.00 0.00 0.00 0.00 0.00 0.00 0.00 0.00 0.00 0.00 0.00 0.00 0.00 0.00 0.00 0.00 0.00 0.00 0.00 0.00
0.00 0.00 0.00 0.00 0.00 0.00 0.00 0.00 0.00 0.00 0.00 0.00 0.00 0.00 0.00 0.00 0.00 0.00 0.00 0.00 0.00 0.00 0.00 0.00 0.00 0.00 0.00 0.00 0.00 0.00 0.00 0.00 0.00 0.00 0.00 0.00 0.00 0.00 0.00 0.00 0.00 0.00 0.00 0.00 0.00 0.00 0.00
0.00 0.00 0.00 0.00 0.00 0.00 0.00 0.00 0.00 0.00 0.00 0.00 0.00 0.00 0.00 0.00 0.00 0.00 0.00 0.00 0.00 0.00 0.00 0.00 0.00 0.00 0.00 0.00 0.00 0.00 0.00 0.00 0.00 0.00 0.00 0.00 0.00 0.00 0.00 0.00 0.00 0.00 0.00 0.00 0.00 0.00 0.00
0.00 0.00 0.00 0.00 0.00 0.00 0.00 0.00 0.00 0.00 0.00 0.00 0.00 0.00 0.00 0.00 0.00 0.00 0.00 0.00 0.00 0.00 0.00 0.00 0.00 0.00 0.00 0.00 0.00 0.00 0.00 0.00 0.00 0.00 0.00 0.00 0.00 0.00 0.00 0.00 0.00 0.00 0.00 0.00 0.00 0.00 0.00
0.00 0.00 0.00 0.00 0.00 0.00 0.00 0.00 0.00 0.00 0.00 0.00 0.00 0.00 0.00 0.00 0.00 0.00 0.00 0.00 0.00 0.00 0.00 0.00 0.00 0.00 0.00 0.00 0.00 0.00 0.00 0.00 0.00 0.00 0.00 0.00 0.00 0.00 0.00 0.00 0.00 0.00 0.00 0.00 0.00 0.00 0.00
0.00 0.00 0.00 0.00 0.00 0.00 0.00 0.00 0.00 0.00 0.00 0.00 0.00 0.00 0.00 0.00 0.00 0.00 0.00 0.00 0.00 0.00 0.00 0.00 0.00 0.00 0.00 0.00 0.00 0.00 0.00 0.00 0.00 0.00 0.00 0.00 0.00 0.00 0.00 0.00 0.00 0.00 0.00 0.00 0.00 0.00 0.00
0.00 0.00 0.00 0.00 0.00 0.00 0.00 0.00 0.00 0.00 0.00 0.00 0.00 0.00 0.00 0.00 0.00 0.00 0.00 0.00 0.00 0.00 0.00 0.00 0.00 0.00 0.00 0.00 0.00 0.00 0.00 0.00 0.00 0.00 0.00 0.00 0.00 0.00 0.00 0.00 0.00 0.00 0.00 0.00 0.00 0.00 0.00
0.00 0.00 0.00 0.00 0.00 0.00 0.00 0.00 0.00 0.00 0.00 0.00 0.00 0.00 0.00 0.00 0.00 0.00 0.00 0.00 0.00 0.00 0.00 0.00 0.00 0.00 0.00 0.00 0.00 0.00 0.00 0.00 0.00 0.00 0.00 0.00 0.00 0.00 0.00 0.00 0.00 0.00 0.00 0.00 0.00 0.00 0.00
0.00 0.00 0.00 0.00 0.00 0.00 0.00 0.00 0.00 0.00 0.00 0.00 0.00 0.00 0.00 0.00 0.00 0.00 0.00 0.00 0.00 0.00 0.00 0.00 0.00 0.00 0.00 0.00 0.00 0.00 0.00 0.00 0.00 0.00 0.00 0.00 0.00 0.00 0.00 0.00 0.00 0.00 0.00 0.00 0.00 0.00 0.00
0.00 0.00 0.00 0.00 0.00 0.00 0.00 0.00 0.00 0.00 0.00 0.00 0.00 0.00 0.00 0.00 0.00 0.00 0.00 0.00 0.00 0.00 0.00 0.00 0.00 0.00 0.00 0.00 0.00 0.00 0.00 0.00 0.00 0.00 0.00 0.00 0.00 0.00 0.00 0.00 0.00 0.00 0.00 0.00 0.00 0.00 0.00
0.00 0.00 0.00 0.00 0.00 0.00 0.00 0.00 0.00 0.00 0.00 0.00 0.00 0.00 0.00 0.00 0.00 0.00 0.00 0.00 0.00 0.00 0.00 0.00 0.00 0.00 0.00 0.00 0.00 0.00 0.00 0.00 0.00 0.00 0.00 0.00 0.00 0.00 0.00 0.00 0.00 0.00 0.00 0.00 0.00 0.00 0.00
0.00 0.00 0.00 0.00 0.00 0.00 0.00 0.00 0.00 0.00 0.00 0.00 0.00 0.00 0.00 0.00 0.00 0.00 0.00 0.00 0.00 0.00 0.00 0.00 0.00 0.00 0.00 0.00 0.00 0.00 0.00 0.00 0.00 0.00 0.00 0.00 0.00 0.00 0.00 0.00 0.00 0.00 0.00 0.00 0.00 0.00 0.00
0.00 0.00 0.00 0.00 0.00 0.00 0.00 0.00 0.00 0.00 0.00 0.00 0.00 0.00 0.00 0.00 0.00 0.00 0.00 0.00 0.00 0.00 0.00 0.00 0.00 0.00 0.00 0.00 0.00 0.00 0.00 0.00 0.00 0.00 0.00 0.00 0.00 0.00 0.00 0.00 0.00 0.00 0.00 0.00 0.00 0.00 0.00
0.00 0.00 0.00 0.00 0.00 0.00 0.00 0.00 0.00 0.00 0.00 0.00 0.00 0.00 0.00 0.00 0.00 0.00 0.00 0.00 0.00 0.00 0.00 0.00 0.00 0.00 0.00 0.00 0.00 0.00 0.00 0.00 0.00 0.00 0.00 0.00 0.00 0.00 0.00 0.00 0.00 0.00 0.00 0.00 0.00 0.00 0.00
0.00 0.00 0.00 0.00 0.00 0.00 0.00 0.00 0.00 0.00 0.00 0.00 0.00 0.00 0.00 0.00 0.00 0.00 0.00 0.00 0.00 0.00 0.00 0.00 0.00 0.00 0.00 0.00 0.00 0.00 0.00 0.00 0.00 0.00 0.00 0.00 0.00 0.00 0.00 0.00 0.00 0.00 0.00 0.00 0.00 0.00 0.00
0.00 0.00 0.00 0.00 0.00 0.00 0.00 0.00 0.00 0.00 0.00 0.00 0.00 0.00 0.00 0.00 0.00 0.00 0.00 0.00 0.00 0.00 0.00 0.00 0.00 0.00 0.00 0.00 0.00 0.00 0.00 0.00 0.00 0.00 0.00 0.00 0.00 0.00 0.00 0.00 0.00 0.00 0.00 0.00 0.00 0.00 0.00
0.00 0.00 0.00 0.00 0.00 0.00 0.00 0.00 0.00 0.00 0.00 0.00 0.00 0.00 0.00 0.00 0.00 0.00 0.00 0.00 0.00 0.00 0.00 0.00 0.00 0.00 0.00 0.00 0.00 0.00 0.00 0.00 0.00 0.00 0.00 0.00 0.00 0.00 0.00 0.00 0.00 0.00 0.00 0.00 0.00 0.00 0.00
0.00 0.00 0.00 0.00 0.00 0.00 0.00 0.00 0.00 0.00 0.00 0.00 0.00 0.00 0.00 0.00 0.00 0.00 0.00 0.00 0.00 0.00 0.00 0.00 0.00 0.00 0.00 0.00 0.00 0.00 0.00 0.00 0.00 0.00 0.00 0.00 0.00 0.00 0.00 0.00 0.00 0.00 0.00 0.00 0.00 0.00 0.00
0.00 0.00 0.00 0.00 0.00 0.00 0.00 0.00 0.00 0.00 0.00 0.00 0.00 0.00 0.00 0.00 0.00 0.00 0.00 0.00 0.00 0.00 0.00 0.00 0.00 0.00 0.00 0.00 0.00 0.00 0.00 0.00 0.00 0.00 0.00 0.00 0.00 0.00 0.00 0.00 0.00 0.00 0.00 0.00 0.00 0.00 0.00
0.00 0.00 0.00 0.00 0.00 0.00 0.00 0.00 0.00 0.00 0.01 0.00 0.01 0.00 0.00 0.00 0.00 0.00 0.00 0.00 0.00 0.00 0.00 0.00 0.00 0.00 0.00 0.00 0.00 0.00 0.00 0.00 0.00 0.00 0.00 0.00 0.00 0.00 0.00 0.00 0.00 0.00 0.00 0.00 0.00 0.00 0.00
MSLP
1018.96 1018.54 1018.06 1017.72 1017.25 1016.92 1016.50 1015.98 1015.69 1015.33 1015.02 1014.58 1014.20 1013.95 1013.76 1013.39 1013.24 1013.09 1013.16 1013.34 1013.57 1014.06 1014.14 1014.29 1014.88 1015.30 1015.47 1015.15 1012.67 1012.95 1013.36 1013.53 1013.30 1013.23 1012.69 1012.27 1011.49 1010.86 1010.22 1010.02 1010.57 1010.45 1011.52 1012.33 1012.87 1012.69 1012.55
1019.14 1018.77 1018.26 1017.85 1017.45 1016.99 1016.68 1016.31 1015.91 1015.53 1015.25 1014.82 1014.53 1014.18 1014.11 1013.92 1013.66 1013.68 1013.80 1013.86 1014.11 1014.42 1014.92 1014.90 1015.30 1015.86 1016.38 1014.13 1012.60 1012.66 1012.95 1013.09 1012.70 1012.74 1012.45 1012.15 1011.16 1010.57 1010.14 1010.43 1010.36 1010.88 1011.70 1012.59 1013.08 1013.10 1013.07
1019.25 1018.83 1018.40 1017.97 1017.56 1017.16 1016.78 1016.42 1016.04 1015.70 1015.48 1015.08 1014.95 1014.72 1014.31 1014.01 1014.13 1014.14 1014.10 1014.22 1014.20 1014.74 1015.34 1014.79 1015.66 1015.88 1015.19 1013.10 1012.61 1012.62 1012.88 1012.47 1012.60 1012.39 1012.19 1012.13 1011.91 1011.34 1010.80 1011.10 1011.36 1011.22 1011.86 1012.58 1013.09 1013.33 1013.29
1019.51 1018.96 1018.50 1018.07 1017.63 1017.31 1016.88 1016.44 1016.17 1015.81 1015.50 1015.29 1015.04 1015.09 1014.87 1014.72 1014.52 1014.50 1014.38 1014.48 1014.58 1014.91 1015.21 1015.01 1015.39 1015.67 1013.53 1012.76 1012.53 1012.72 1012.51 1012.57 1012.71 1012.65 1012.50 1012.53 1012.29 1011.81 1011.04 1011.43 1011.34 1010.94 1011.34 1011.86 1012.84 1013.34 1013.57
1019.87 1019.26 1018.66 1018.18 1017.77 1017.41 1017.03 1016.59 1016.29 1015.88 1015.52 1015.37 1015.17 1014.96 1014.69 1014.87 1014.66 1014.63 1014.39 1014.40 1014.49 1014.59 1014.85 1014.99 1015.17 1014.50 1012.62 1012.93 1012.75 1012.71 1012.02 1011.97 1012.36 1012.43 1012.64 1012.61 1012.39 1011.86 1011.88 1010.82 1010.57 1010.67 1010.03 1010.94 1012.52 1013.35 1013.32
1020.11 1019.59 1019.00 1018.43 1017.96 1017.55 1017.11 1016.69 1016.41 1015.95 1015.64 1015.50 1015.37 1015.09 1014.71 1014.42 1014.42 1014.29 1014.08 1014.10 1014.12 1014.44 1014.59 1014.38 1013.75 1013.48 1012.85 1012.84 1012.80 1012.74 1012.38 1012.10 1011.90 1012.18 1012.49 1012.33 1012.07 1011.58 1011.14 1010.25 1009.44 1009.43 1009.75 1010.73 1011.46 1013.13 1013.07
1020.45 1019.95 1019.39 1018.88 1018.17 1017.67 1017.26 1016.75 1016.36 1016.04 1015.73 1015.50 1015.37 1015.20 1015.00 1014.56 1014.53 1014.53 1014.28 1014.07 1014.34 1013.69 1013.34 1013.47 1013.05 1012.60 1012.68 1013.06 1013.24 1012.60 1012.30 1011.95 1011.81 1011.68 1011.64 1012.16 1012.04 1011.48 1011.16 1010.81 1010.00 1009.36 1009.82 1010.45 1011.96 1013.14 1013.13
1020.79 1020.21 1019.66 1019.18 1018.60 1017.93 1017.40 1016.91 1016.50 1016.21 1015.83 1015.48 1015.26 1014.92 1015.07 1014.97 1014.53 1014.30 1013.96 1013.53 1014.26 1014.36 1013.78 1013.44 1013.19 1013.01 1013.26 1013.25 1012.56 1012.46 1012.09 1011.74 1011.73 1011.74 1012.12 1012.36 1012.48 1013.09 1012.86 1011.97 1011.02 1010.74 1010.80 1011.29 1012.45 1013.11 1013.12
1021.00 1020.50 1019.95 1019.40 1018.86 1018.28 1017.69 1017.08 1016.62 1016.30 1015.94 1015.46 1015.35 1014.55 1015.05 1014.71 1014.55 1014.33 1013.89 1014.48 1014.66 1014.40 1013.41 1013.58 1013.36 1013.13 1013.24 1012.99 1012.88 1012.91 1012.31 1012.33 1012.11 1012.32 1012.38 1012.58 1014.09 1014.32 1013.42 1012.75 1012.14 1012.24 1012.04 1012.46 1013.07 1013.14 1013.06
1021.36 1020.77 1020.21 1019.71 1019.16 1018.52 1017.94 1017.44 1016.87 1016.56 1016.01 1015.49 1015.32 1014.74 1014.80 1014.34 1014.68 1014.41 1014.46 1014.91 1014.77 1014.53 1013.64 1013.87 1013.17 1013.30 1013.06 1012.99 1013.43 1013.65 1013.47 1013.13 1013.09 1013.22 1013.59 1014.41 1015.21 1014.72 1014.22 1014.08 1013.95 1013.59 1014.28 1014.06 1013.87 1013.52 1012.80
1021.74 1021.14 1020.55 1019.85 1019.30 1018.79 1018.14 1017.53 1017.06 1016.67 1016.32 1015.54 1015.32 1014.78 1014.94 1014.39 1014.31 1014.45 1015.36 1015.09 1014.84 1014.66 1014.34 1014.50 1013.63 1013.41 1013.11 1013.04 1013.53 1013.78 1013.89 1013.24 1013.49 1014.20 1014.75 1015.90 1015.73 1015.50 1015.28 1015.83 1015.47 1015.38 1015.44 1015.05 1014.78 1014.26 1014.00
1021.95 1021.45 1020.93 1020.24 1019.46 1018.85 1018.35 1017.71 1017.08 1016.64 1016.30 1015.92 1015.45 1014.89 1014.73 1014.32 1014.47 1015.48 1015.52 1015.31 1015.07 1014.70 1014.95 1014.65 1013.99 1013.41 1012.92 1013.05 1013.55 1013.85 1013.77 1013.75 1014.54 1014.56 1015.26 1016.27 1016.79 1016.76 1016.81 1016.90 1016.38 1016.41 1015.97 1015.61 1015.28 1014.87 1014.45
1022.36 1021.74 1021.15 1020.47 1019.68 1018.94 1018.30 1017.82 1017.26 1016.63 1016.19 1015.85 1015.72 1015.32 1014.60 1014.66 1014.81 1015.21 1015.26 1014.81 1014.60 1014.68 1015.53 1014.87 1014.28 1013.80 1013.34 1013.57 1013.70 1013.78 1013.72 1013.92 1014.41 1015.18 1015.72 1016.28 1016.98 1017.51 1017.55 1017.19 1017.23 1016.83 1016.19 1015.75 1015.46 1015.06 1014.32
1022.71 1022.07 1021.42 1020.75 1019.99 1019.22 1018.53 1017.74 1017.31 1016.78 1016.22 1015.86 1015.69 1015.64 1015.51 1015.34 1015.29 1014.98 1014.74 1014.43 1014.63 1015.50 1015.30 1015.31 1014.51 1013.98 1013.81 1014.06 1014.13 1013.95 1013.84 1014.33 1015.09 1015.00 1015.19 1016.00 1017.47 1017.73 1018.03 1017.74 1017.22 1016.93 1016.52 1015.74 1014.97 1014.24 1013.62
1022.96 1022.27 1021.55 1020.98 1020.25 1019.58 1018.86 1018.00 1017.23 1016.76 1016.18 1015.94 1015.82 1015.52 1015.20 1015.53 1015.58 1015.23 1014.41 1014.57 1015.95 1015.84 1015.80 1014.99 1014.49 1013.74 1013.95 1013.98 1013.86 1013.76 1014.24 1014.67 1015.43 1015.67 1015.37 1015.65 1017.12 1018.19 1018.38 1018.21 1018.09 1017.25 1016.90 1016.46 1015.32 1014.69 1013.87
1023.22 1022.71 1021.82 1021.17 1020.49 1019.75 1019.04 1018.21 1017.29 1016.62 1016.16 1015.84 1015.13 1015.15 1015.55 1015.88 1015.77 1015.18 1014.49 1015.74 1016.48 1016.88 1016.42 1015.66 1014.35 1014.20 1013.53 1013.87 1013.88 1014.03 1014.62 1015.69 1015.91 1016.31 1016.20 1015.53 1016.68 1018.05 1018.53 1018.56 1018.43 1017.91 1017.49 1016.65 1015.78 1014.50 1012.97
1023.01 1022.91 1022.29 1021.45 1020.77 1019.98 1019.18 1018.29 1017.34 1016.47 1016.02 1015.77 1015.14 1014.43 1015.54 1015.81 1015.68 1014.71 1015.00 1016.32 1016.88 1017.04 1016.77 1015.95 1015.20 1014.60 1014.32 1014.16 1014.26 1014.48 1015.19 1016.31 1016.47 1016.46 1016.29 1016.18 1016.18 1018.11 1018.38 1018.19 1017.59 1018.03 1017.28 1016.87 1016.25 1014.96 1013.46
1023.13 1022.66 1022.37 1021.77 1020.94 1020.25 1019.47 1018.56 1017.50 1016.49 1015.76 1015.55 1014.65 1014.20 1015.05 1015.50 1014.97 1014.85 1015.74 1016.50 1017.18 1016.98 1016.68 1016.27 1015.82 1015.45 1015.08 1015.07 1014.94 1015.24 1015.72 1016.59 1017.23 1017.13 1016.53 1016.75 1016.44 1016.90 1017.51 1018.17 1018.31 1017.81 1016.92 1016.35 1015.79 1014.97 1014.54
1023.29 1022.73 1022.22 1021.84 1021.40 1020.62 1019.72 1018.84 1017.84 1016.89 1016.17 1015.73 1014.40 1014.39 1014.46 1014.44 1014.43 1015.31 1016.64 1017.02 1017.35 1017.17 1017.14 1016.67 1016.30 1016.17 1015.84 1015.50 1015.66 1015.92 1016.58 1017.59 1017.76 1017.66 1017.45 1017.12 1016.79 1016.68 1017.31 1018.18 1018.23 1017.67 1016.94 1016.59 1016.39 1016.06 1014.60
1023.36 1022.85 1022.30 1021.72 1021.25 1020.83 1020.09 1019.10 1018.20 1017.27 1016.53 1016.08 1014.99 1014.48 1014.44 1014.52 1015.47 1015.44 1016.06 1016.90 1017.30 1017.71 1017.52 1017.37 1017.02 1016.74 1016.32 1016.18 1016.38 1016.55 1017.15 1018.02 1018.40 1018.46 1018.67 1018.15 1017.01 1016.33 1016.04 1016.21 1016.23 1016.71 1016.57 1016.61 1016.30 1015.73 1014.04
1023.30 1022.91 1022.38 1021.93 1021.24 1020.85 1020.30 1019.57 1018.38 1017.47 1016.74 1016.05 1015.95 1016.76 1017.07 1015.74 1015.87 1016.10 1016.27 1016.85 1017.17 1017.44 1017.60 1017.49 1017.25 1017.15 1016.98 1016.71 1016.78 1016.96 1017.53 1018.14 1018.56 1018.90 1018.79 1018.50 1017.56 1017.12 1016.84 1016.56 1016.65 1016.51 1016.21 1016.22 1015.81 1014.73 1013.98
1023.11 1022.87 1022.55 1021.97 1021.48 1020.92 1020.50 1020.00 1019.15 1017.80 1016.63 1016.80 1016.78 1016.88 1017.18 1017.05 1016.97 1016.42 1016.74 1016.96 1017.11 1017.48 1017.67 1017.62 1017.47 1017.52 1017.41 1017.16 1017.29 1017.22 1017.49 1017.85 1017.95 1018.92 1018.72 1018.68 1017.94 1017.62 1016.79 1016.16 1016.39 1016.23 1015.80 1015.62 1015.26 1015.09 1014.67
1023.16 1022.70 1022.48 1022.14 1021.72 1021.37 1020.97 1020.38 1019.89 1018.87 1017.08 1017.25 1018.39 1018.28 1017.25 1017.06 1016.78 1016.83 1017.30 1017.52 1017.70 1017.93 1018.03 1017.80 1017.66 1017.57 1017.70 1017.98 1018.00 1017.95 1017.87 1017.98 1018.13 1018.17 1018.40 1018.51 1018.12 1017.75 1016.49 1016.48 1016.18 1015.28 1014.37 1014.35 1014.67 1014.79 1014.79
1023.36 1022.86 1022.43 1022.13 1021.87 1021.49 1021.19 1020.91 1020.41 1020.09 1019.67 1018.54 1018.86 1018.64 1017.55 1016.93 1016.83 1016.77 1017.23 1017.84 1018.14 1018.37 1018.29 1018.25 1018.26 1018.17 1018.57 1018.44 1018.06 1017.75 1017.48 1017.59 1017.87 1018.04 1018.40 1018.32 1018.36 1018.12 1017.11 1016.69 1015.63 1014.59 1014.61 1014.56 1014.44 1015.19 1015.49
1023.13 1022.87 1022.40 1021.92 1021.73 1021.60 1021.28 1021.09 1020.76 1020.31 1020.05 1019.98 1019.98 1018.92 1018.04 1017.31 1017.54 1017.63 1017.77 1017.64 1017.86 1018.02 1018.28 1018.47 1018.77 1019.18 1019.08 1018.64 1017.88 1017.15 1017.15 1017.36 1017.35 1017.82 1018.26 1018.25 1017.99 1017.72 1017.22 1016.03 1014.55 1013.92 1014.99 1015.22 1015.41 1015.64 1016.54
1023.02 1022.57 1022.28 1021.90 1021.49 1021.52 1021.39 1021.17 1020.90 1020.73 1020.61 1019.93 1020.38 1020.56 1019.16 1017.90 1017.54 1018.00 1018.12 1018.18 1017.81 1017.81 1018.15 1018.39 1018.88 1019.00 1018.94 1018.35 1017.91 1017.01 1016.15 1016.20 1017.12 1018.33 1018.89 1018.60 1018.52 1018.04 1017.21 1016.62 1014.97 1014.60 1015.52 1016.03 1016.20 1016.32 1017.28
1023.02 1022.59 1022.19 1022.19 1021.61 1021.37 1021.32 1021.20 1021.14 1021.15 1020.90 1020.40 1020.08 1020.47 1019.86 1018.90 1018.52 1018.51 1018.35 1018.38 1018.63 1018.57 1018.29 1018.64 1018.92 1019.07 1019.00 1018.05 1017.51 1016.80 1016.16 1016.45 1016.55 1016.96 1018.14 1018.53 1018.42 1017.79 1017.36 1016.62 1015.39 1015.28 1015.95 1016.55 1017.29 1018.03 1018.34
1023.07 1022.73 1022.50 1022.42 1022.00 1021.45 1021.37 1021.45 1021.17 1021.03 1021.26 1020.94 1020.44 1020.34 1020.32 1019.62 1019.13 1019.43 1019.27 1018.92 1019.00 1018.93 1018.51 1019.09 1019.20 1019.29 1019.10 1018.43 1017.80 1017.03 1016.89 1016.59 1016.87 1016.59 1016.90 1016.91 1017.02 1017.07 1016.82 1016.79 1016.41 1016.37 1016.97 1017.64 1018.35 1019.14 1019.72
1022.92 1022.65 1022.62 1022.50 1022.42 1021.86 1021.64 1021.59 1021.41 1021.20 1020.88 1021.11 1020.91 1021.07 1020.71 1020.21 1019.51 1019.82 1019.67 1019.74 1019.84 1019.66 1019.38 1019.42 1019.41 1019.27 1018.86 1018.62 1018.53 1018.33 1018.10 1017.71 1017.07 1016.59 1016.81 1016.61 1015.93 1016.14 1016.11 1016.04 1017.02 1017.58 1018.09 1019.30 1019.88 1020.07 1020.00
Thickness
5587 5583 5580 5574 5569 5562 5556 5550 5543 5537 5532 5528 5524 5518 5514 5515 5516 5517 5516 5515 5513 5508 5504 5507 5509 5523 5535 5544 5574 5588 5597 5610 5625 5639 5651 5663 5674 5684 5688 5702 5704 5707 5702 5700 5699 5704 5707
5587 5582 5579 5574 5569 5563 5556 5550 5544 5538 5531 5527 5522 5517 5515 5515 5514 5514 5513 5512 5512 5508 5503 5506 5511 5521 5519 5543 5571 5585 5596 5609 5625 5637 5648 5662 5675 5689 5692 5694 5700 5705 5699 5694 5695 5697 5700
5588 5584 5579 5575 5570 5565 5558 5553 5547 5541 5534 5528 5521 5516 5516 5517 5515 5514 5514 5512 5514 5512 5510 5514 5512 5521 5526 5552 5570 5582 5594 5610 5623 5637 5645 5660 5670 5677 5689 5680 5692 5697 5686 5689 5689 5692 5694
5588 5584 5581 5576 5572 5567 5562 5557 5551 5545 5539 5532 5526 5518 5517 5516 5517 5515 5517 5517 5519 5515 5515 5513 5519 5522 5544 5563 5573 5581 5595 5606 5620 5634 5645 5655 5666 5672 5684 5686 5686 5689 5692 5683 5686 5687 5688
5587 5584 5582 5579 5575 5570 5566 5561 5556 5551 5546 5540 5533 5527 5524 5523 5523 5522 5524 5527 5526 5527 5525 5525 5527 5537 5557 5568 5573 5584 5602 5610 5620 5632 5641 5653 5661 5667 5671 5680 5680 5682 5690 5691 5678 5681 5683
5588 5585 5582 5580 5577 5573 5569 5566 5561 5558 5552 5545 5539 5535 5533 5534 5534 5534 5536 5538 5539 5538 5538 5540 5550 5554 5564 5567 5578 5587 5602 5614 5622 5630 5637 5649 5657 5664 5673 5682 5672 5684 5689 5691 5692 5676 5681
5588 5585 5582 5580 5579 5577 5574 5571 5568 5564 5560 5554 5548 5543 5540 5540 5540 5541 5542 5546 5546 5551 5555 5553 5559 5567 5570 5574 5582 5593 5606 5615 5625 5635 5638 5646 5648 5654 5672 5680 5689 5700 5697 5693 5682 5671 5672
5588 5586 5584 5581 5580 5579 5578 5576 5574 5570 5567 5564 5559 5555 5548 5547 5549 5550 5553 5556 5550 5554 5557 5561 5565 5570 5573 5579 5588 5597 5614 5617 5623 5626 5637 5643 5643 5648 5655 5667 5680 5684 5687 5685 5675 5671 5671
5590 5587 5585 5583 5582 5581 5580 5580 5578 5575 5573 5573 5569 5569 5560 5558 5556 5558 5561 5554 5552 5556 5568 5564 5568 5574 5579 5588 5591 5596 5614 5617 5623 5625 5636 5644 5635 5638 5654 5662 5671 5670 5678 5674 5667 5671 5672
5590 5589 5586 5584 5583 5583 5584 5582 5581 5579 5579 5581 5577 5577 5573 5573 5568 5566 5564 5558 5560 5563 5569 5566 5574 5578 5587 5591 5589 5600 5608 5616 5618 5622 5630 5627 5627 5639 5650 5651 5655 5665 5653 5656 5660 5666 5673
5589 5589 5587 5586 5585 5584 5585 5586 5585 5584 5583 5585 5584 5585 5579 5580 5578 5575 5566 5566 5567 5571 5559 5571 5577 5590 5593 5598 5599 5602 5611 5620 5618 5615 5623 5614 5627 5635 5645 5634 5643 5646 5645 5649 5649 5654 5649
5591 5590 5588 5587 5587 5588 5587 5588 5590 5589 5588 5587 5588 5591 5589 5588 5582 5572 5568 5570 5573 5574 5557 5566 5582 5587 5598 5604 5604 5608 5614 5621 5619 5622 5620 5615 5621 5626 5629 5629 5638 5637 5642 5643 5643 5643 5634
5589 5589 5590 5590 5590 5591 5592 5592 5593 5594 5593 5593 5590 5591 5595 5591 5590 5581 5578 5584 5578 5575 5572 5576 5582 5589 5599 5599 5605 5610 5614 5618 5621 5604 5601 5621 5617 5619 5624 5630 5629 5633 5634 5638 5633 5631 5647
5588 5589 5590 5591 5592 5592 5594 5597 5597 5597 5599 5598 5596 5593 5592 5591 5590 5590 5591 5593 5578 5573 5579 5580 5588 5598 5597 5600 5602 5611 5617 5618 5615 5625 5627 5620 5609 5617 5617 5622 5629 5629 5631 5637 5630 5644 5654
5587 5589 5592 5592 5594 5595 5596 5599 5601 5602 5603 5603 5600 5599 5599 5595 5593 5596 5604 5586 5580 5586 5586 5595 5599 5609 5602 5606 5613 5618 5617 5619 5613 5615 5629 5627 5614 5608 5610 5615 5617 5624 5623 5622 5624 5623 5625
5586 5586 5591 5593 5595 5597 5598 5602 5607 5607 5608 5608 5614 5609 5602 5598 5597 5602 5607 5584 5585 5582 5587 5595 5609 5609 5616 5613 5616 5619 5617 5608 5610 5610 5617 5629 5615 5606 5604 5608 5609 5612 5616 5619 5617 5614 5625
5586 5586 5588 5592 5594 5598 5601 5605 5610 5614 5614 5613 5618 5621 5607 5604 5604 5615 5598 5587 5588 5588 5591 5599 5604 5609 5612 5615 5617 5619 5615 5605 5610 5613 5618 5620 5626 5602 5603 5606 5619 5605 5610 5608 5608 5616 5623
5586 5587 5587 5590 5593 5596 5602 5606 5612 5618 5621 5619 5627 5619 5616 5611 5616 5614 5601 5597 5588 5592 5596 5598 5603 5605 5609 5609 5613 5614 5615 5610 5605 5609 5616 5613 5622 5612 5613 5599 5598 5602 5612 5615 5607 5613 5605
5583 5585 5589 5591 5592 5595 5599 5607 5613 5617 5621 5623 5630 5626 5625 5621 5616 5607 5593 5591 5589 5593 5592 5598 5600 5600 5604 5607 5608 5608 5606 5597 5600 5603 5608 5610 5612 5610 5602 5594 5591 5594 5602 5602 5596 5590 5598
5580 5583 5586 5591 5593 5595 5598 5602 5611 5617 5621 5625 5629 5622 5625 5622 5612 5611 5604 5596 5595 5590 5592 5592 5594 5597 5601 5601 5601 5600 5598 5591 5589 5593 5583 5592 5605 5611 5618 5611 5611 5596 5595 5593 5592 5586 5602
5579 5580 5583 5586 5592 5594 5598 5600 5606 5614 5620 5627 5621 5605 5601 5613 5610 5606 5605 5600 5597 5594 5593 5594 5596 5596 5596 5598 5597 5597 5593 5589 5586 5581 5585 5587 5593 5591 5589 5596 5592 5593 5597 5590 5582 5596 5592
5578 5577 5578 5581 5585 5591 5593 5596 5601 5608 5618 5616 5618 5614 5604 5603 5600 5608 5601 5600 5600 5596 5594 5593 5593 5591 5593 5595 5594 5594 5592 5589 5594 5580 5583 5581 5586 5580 5586 5595 5587 5581 5589 5588 5591 5588 5584
5572 5575 5575 5575 5578 5581 5585 5590 5593 5599 5611 5609 5597 5597 5609 5594 5604 5604 5598 5595 5594 5592 5591 5594 5595 5596 5593 5589 5587 5587 5588 5587 5586 5586 5580 5578 5578 5575 5587 5582 5581 5589 5601 5596 5589 5586 5581
5564 5568 5570 5571 5571 5574 5577 5580 5583 5587 5588 5593 5589 5593 5603 5604 5604 5604 5597 5591 5588 5587 5588 5588 5588 5588 5584 5583 5585 5586 5587 5583 5581 5580 5575 5573 5569 5567 5570 5574 5570 5590 5585 5586 5589 5575 5568
5555 5559 5562 5566 5566 5565 5567 5570 5573 5577 5579 5579 5577 5587 5593 5600 5594 5589 5587 5590 5589 5587 5585 5582 5579 5573 5572 5575 5582 5587 5584 5578 5578 5574 5568 5568 5568 5561 5558 5572 5587 5591 5570 5569 5563 5564 5547
5546 5551 5553 5556 5561 5561 5559 5560 5562 5566 5568 5574 5570 5567 5579 5587 5592 5584 5581 5581 5586 5586 5581 5578 5571 5568 5567 5572 5572 5576 5585 5590 5575 5554 5548 5553 5551 5552 5552 5545 5558 5568 5556 5548 5546 5551 5531
5533 5539 5544 5545 5550 5551 5551 5552 5554 5553 5555 5559 5563 5560 5568 5574 5575 5573 5577 5575 5570 5569 5571 5566 5563 5561 5559 5568 5567 5570 5574 5572 5570 5567 5546 5537 5535 5537 5538 5537 5553 5553 5544 5535 5531 5526 5508
5521 5525 5527 5530 5535 5541 5542 5541 5543 5545 5543 5545 5551 5550 5553 5560 5563 5557 5558 5561 5559 5558 5561 5554 5553 5547 5546 5549 5554 5561 5557 5560 5551 5556 5548 5545 5537 5531 5533 5526 5529 5532 5523 5521 5505 5484 5470
5508 5512 5514 5515 5517 5524 5527 5527 5530 5532 5534 5533 5535 5531 5535 5542 5549 5543 5545 5543 5541 5543 5544 5541 5539 5538 5542 5540 5538 5536 5534 5535 5541 5539 5535 5530 5540 5536 5532 5533 5514 5506 5497 5471 5459 5451 5452